Tracking 31032 objects as of 13-Jul-2025
HD Live streaming from Space Station
objects crossing your sky now

STARLINK-2606

Track STARLINK-2606 now!
10-day predictions
STARLINK-2606 is classified as:


NORAD ID: 48386
Int'l Code: 2021-038AK
Perigee: 553.5 km
Apogee: 555.3 km
Inclination: 53.1 °
Period: 95.6 minutes
Semi major axis: 6925 km
RCS: Unknown
Launch date: May 4, 2021
Source: United States (US)
Launch site: AIR FORCE EASTERN TEST RANGE (AFETR)
Your satellite tracking list
Your tracking list is empty




NASA's NSSDC Master Catalog

Two Line Element Set (TLE):
1 48386U 21038AK  25193.85719827  .00000931  00000-0  81427-4 0  9999
2 48386  53.0564 343.2771 0001273  96.6086 263.5048 15.06394175231082
Source of the keplerian elements: AFSPC